Weather History for Thermopolis, WY

Change the Weather History Date:

Tuesday, January 8, 2013

  Actual Average (KWRL) Record (KWRL)
Temperature  
Mean Temperature 28 °F 16 °F  
Max Temperature 33 °F 30 °F 62 °F (1966)
Min Temperature 23 °F 3 °F -33 °F (1979)
Degree Days  
Heating Degree Days 37 49  
Month to date heating degree days 392  
Since 1 July heating degree days 3755  
Cooling Degree Days 0 0  
Month to date cooling degree days 0  
Year to date cooling degree days 0  
Moisture  
Dew Point 14 °F    
Average Humidity 52    
Maximum Humidity 80    
Minimum Humidity 41    
Precipitation  
Precipitation 0.00 in 0.01 in 0.30 in (1962)
Month to date precipitation 0.06  
Year to date precipitation 0.06  
Sea Level Pressure  
Sea Level Pressure 30.00 in    
Wind  
Wind Speed 11 mph (SSW)    
Max Wind Speed 25 mph    
Max Gust Speed 38 mph    
Visibility 10 miles    
Events      
T = Trace of Precipitation, MM = Missing Value Source: NWS Daily Summary

Daily Weather History Graph

Daily Weather History Graph

Search for Another Location

Airport:

Trip Planner

Search our weather history database for the weather conditions in past years. The results will help you decide how hot, cold, wet, or windy it might be!

Date:

Astronomy

Jan. 08, 2013 Rise Set
Actual Time 7:45 AM MST 4:54 PM MST
Civil Twilight 7:13 AM MST 5:26 PM MST
Nautical Twilight 6:37 AM MST 6:02 PM MST
Astronomical Twilight 6:02 AM MST 6:37 PM MST
Moon 4:21 AM MST (1/8) 2:00 PM MST (1/8)
Length of Visible Light 10h 13m
Length of Day
9h 09m
Waning Crescent, 13% of the Moon is Illuminated
Jan 8
Waning Crescent
Jan 11
New
Jan 18
First Quarter
Jan 26
Full
Feb 3
Last Quarter

Hourly Weather History & Observations

Time (MST) Temp. Windchill Dew Point Humidity Pressure Visibility Wind Dir Wind Speed Gust Speed Precip Events Conditions
12:15 AM 30.2 °F 20.2 °F 14.0 °F 51% 29.81 in 10.0 mi SSE 12.7 mph - N/A   Clear
12:35 AM 32.0 °F 23.0 °F 14.0 °F 48% 29.82 in 10.0 mi South 11.5 mph - N/A   Clear
1:15 AM 30.2 °F 20.8 °F 14.0 °F 51% 29.83 in 10.0 mi SSW 11.5 mph 18.4 mph N/A   Clear
1:35 AM 32.0 °F 24.8 °F 14.0 °F 48% 29.83 in 10.0 mi SW 8.1 mph - N/A   Clear
1:55 AM 32.0 °F 22.1 °F 14.0 °F 48% 29.84 in 10.0 mi West 13.8 mph - N/A   Clear
2:15 AM 32.0 °F 22.1 °F 12.2 °F 44% 29.85 in 10.0 mi WNW 13.8 mph - N/A   Clear
2:35 AM 32.0 °F 26.4 °F 12.2 °F 44% 29.86 in 10.0 mi SW 5.8 mph 9.2 mph N/A   Scattered Clouds
2:55 AM 32.0 °F 21.6 °F 14.0 °F 48% 29.86 in 10.0 mi SSW 15.0 mph 20.7 mph N/A   Mostly Cloudy
3:15 AM 30.2 °F 18.1 °F 15.8 °F 55% 29.85 in 10.0 mi SSW 18.4 mph - N/A   Mostly Cloudy
3:35 AM 30.2 °F 16.5 °F 15.8 °F 55% 29.83 in 10.0 mi SSW 24.2 mph - N/A   Mostly Cloudy
3:55 AM 30.2 °F 17.4 °F 15.8 °F 55% 29.83 in 10.0 mi SW 20.7 mph 28.8 mph N/A   Scattered Clouds
4:15 AM 30.2 °F 16.5 °F 14.0 °F 51% 29.83 in 10.0 mi SW 24.2 mph 38.0 mph N/A   Clear
4:35 AM 30.2 °F 16.2 °F 14.0 °F 51% 29.84 in 10.0 mi SW 25.3 mph 33.4 mph N/A   Scattered Clouds
4:55 AM 30.2 °F 16.2 °F 15.8 °F 55% 29.85 in 10.0 mi WSW 25.3 mph 28.8 mph N/A   Mostly Cloudy
5:15 AM 30.2 °F 17.8 °F 15.8 °F 55% 29.86 in 10.0 mi WSW 19.6 mph - N/A   Scattered Clouds
5:35 AM 30.2 °F 18.5 °F 15.8 °F 55% 29.88 in 10.0 mi WSW 17.3 mph - N/A   Clear
5:55 AM 28.4 °F 18.5 °F 15.8 °F 59% 29.89 in 10.0 mi West 11.5 mph - N/A   Scattered Clouds
6:15 AM 30.2 °F 21.3 °F 14.0 °F 51% 29.90 in 10.0 mi WSW 10.4 mph - N/A   Mostly Cloudy
6:35 AM 30.2 °F 26.7 °F 14.0 °F 51% 29.90 in 10.0 mi SW 3.5 mph - N/A   Mostly Cloudy
6:55 AM 32.0 °F - 12.2 °F 44% 29.91 in 10.0 mi Calm Calm - N/A   Scattered Clouds
7:15 AM 32.0 °F 26.4 °F 12.2 °F 44% 29.91 in 10.0 mi SSW 5.8 mph - N/A   Clear
7:55 AM 30.2 °F 20.8 °F 14.0 °F 51% 29.92 in 10.0 mi WSW 11.5 mph - N/A   Clear
8:15 AM 28.4 °F 18.5 °F 15.8 °F 59% 29.92 in 10.0 mi SW 11.5 mph - N/A   Clear
8:35 AM 28.4 °F 17.0 °F 14.0 °F 55% 29.93 in 10.0 mi West 15.0 mph - N/A   Clear
8:55 AM 30.2 °F 21.9 °F 14.0 °F 51% 29.95 in 10.0 mi SW 9.2 mph - N/A   Clear
9:15 AM 30.2 °F 22.6 °F 14.0 °F 51% 29.96 in 10.0 mi SW 8.1 mph - N/A   Clear
9:35 AM 30.2 °F 19.3 °F 14.0 °F 51% 29.97 in 10.0 mi SW 15.0 mph - N/A   Clear
9:55 AM 30.2 °F 19.3 °F 15.8 °F 55% 29.98 in 10.0 mi SSW 15.0 mph - N/A   Clear
10:15 AM 30.2 °F 20.8 °F 14.0 °F 51% 29.98 in 10.0 mi SW 11.5 mph 17.3 mph N/A   Clear
10:35 AM 32.0 °F 24.2 °F 14.0 °F 48% 29.99 in 10.0 mi SSW 9.2 mph - N/A   Clear
10:55 AM 32.0 °F 25.6 °F 14.0 °F 48% 29.99 in 10.0 mi SW 6.9 mph - N/A   Clear
11:15 AM 32.0 °F - 14.0 °F 48% 30.00 in 10.0 mi Calm Calm - N/A   Clear
11:35 AM 32.0 °F 26.4 °F 14.0 °F 48% 30.00 in 10.0 mi WSW 5.8 mph - N/A   Clear
11:55 AM 32.0 °F 26.4 °F 14.0 °F 48% 30.00 in 10.0 mi WNW 5.8 mph - N/A   Clear
12:15 PM 32.0 °F 28.7 °F 12.2 °F 44% 30.00 in 10.0 mi NNW 3.5 mph - N/A   Clear
12:35 PM 32.0 °F - 12.2 °F 44% 30.00 in 10.0 mi Calm Calm - N/A   Clear
12:55 PM 33.8 °F 30.8 °F 14.0 °F 44% 30.01 in 10.0 mi SE 3.5 mph - N/A   Clear
1:15 PM 33.8 °F 29.6 °F 12.2 °F 41% 30.01 in 10.0 mi ENE 4.6 mph - N/A   Clear
1:35 PM 32.0 °F 27.5 °F 15.8 °F 51% 30.03 in 10.0 mi ENE 4.6 mph - N/A   Clear
1:55 PM 32.0 °F 27.5 °F 14.0 °F 48% 30.04 in 10.0 mi NNE 4.6 mph - N/A   Clear
2:15 PM 32.0 °F 27.5 °F 12.2 °F 44% 30.05 in 10.0 mi NNE 4.6 mph - N/A   Clear
2:35 PM 32.0 °F 25.6 °F 10.4 °F 41% 30.05 in 10.0 mi NNW 6.9 mph - N/A   Clear
2:55 PM 32.0 °F 25.6 °F 14.0 °F 48% 30.06 in 10.0 mi NNE 6.9 mph - N/A   Clear
3:15 PM 32.0 °F 24.8 °F 12.2 °F 44% 30.07 in 10.0 mi NNW 8.1 mph - N/A   Clear
3:35 PM 32.0 °F 27.5 °F 12.2 °F 44% 30.08 in 10.0 mi NNW 4.6 mph - N/A   Clear
3:55 PM 32.0 °F 28.7 °F 10.4 °F 41% 30.09 in 10.0 mi NNW 3.5 mph - N/A   Clear
4:15 PM 32.0 °F 27.5 °F 10.4 °F 41% 30.08 in 10.0 mi NNE 4.6 mph - N/A   Clear
4:35 PM 32.0 °F - 10.4 °F 41% 30.08 in 10.0 mi Calm Calm - N/A   Clear
4:55 PM 32.0 °F - 10.4 °F 41% 30.09 in 10.0 mi Calm Calm - N/A   Clear
5:15 PM 32.0 °F 26.4 °F 10.4 °F 41% 30.08 in 10.0 mi SE 5.8 mph - N/A   Clear
5:35 PM 32.0 °F 25.6 °F 12.2 °F 44% 30.09 in 10.0 mi East 6.9 mph - N/A   Scattered Clouds
5:55 PM 32.0 °F 23.6 °F 12.2 °F 44% 30.08 in 10.0 mi SSE 10.4 mph - N/A   Scattered Clouds
6:15 PM 32.0 °F 24.2 °F 14.0 °F 48% 30.08 in 10.0 mi SSE 9.2 mph 17.3 mph N/A   Scattered Clouds
6:35 PM 30.2 °F 24.3 °F 14.0 °F 51% 30.10 in 10.0 mi SSE 5.8 mph - N/A   Scattered Clouds
6:55 PM 28.4 °F 22.2 °F 14.0 °F 55% 30.10 in 10.0 mi SSE 5.8 mph - N/A   Scattered Clouds
7:15 PM 28.4 °F 21.2 °F 17.6 °F 64% 30.11 in 10.0 mi ESE 6.9 mph - N/A   Scattered Clouds
7:35 PM 28.4 °F 20.4 °F 17.6 °F 64% 30.10 in 10.0 mi SSE 8.1 mph - N/A   Scattered Clouds
7:55 PM 26.6 °F 19.1 °F 17.6 °F 69% 30.12 in 10.0 mi SSE 6.9 mph - N/A   Clear
8:15 PM 28.4 °F 19.1 °F 17.6 °F 64% 30.12 in 10.0 mi SSE 10.4 mph - N/A   Clear
8:35 PM 28.4 °F 21.2 °F 17.6 °F 64% 30.14 in 10.0 mi SSE 6.9 mph - N/A   Clear
8:55 PM 32.0 °F 23.0 °F 15.8 °F 51% 30.15 in 10.0 mi SSW 11.5 mph - N/A   Clear
9:15 PM 30.2 °F 21.3 °F 15.8 °F 55% 30.15 in 10.0 mi South 10.4 mph - N/A   Clear
9:35 PM 30.2 °F 19.8 °F 17.6 °F 60% 30.15 in 10.0 mi South 13.8 mph - N/A   Clear
9:55 PM 30.2 °F 19.3 °F 17.6 °F 60% 30.15 in 10.0 mi South 15.0 mph - N/A   Clear
10:15 PM 30.2 °F 18.5 °F 17.6 °F 60% 30.16 in 10.0 mi South 17.3 mph - N/A   Clear
10:35 PM 30.2 °F 20.2 °F 17.6 °F 60% 30.16 in 10.0 mi South 12.7 mph - N/A   Clear
10:55 PM 28.4 °F 19.7 °F 17.6 °F 64% 30.17 in 10.0 mi SE 9.2 mph - N/A   Clear
11:15 PM 23.0 °F 11.1 °F 17.6 °F 80% 30.18 in 10.0 mi SE 12.7 mph - N/A   Clear
11:35 PM 24.8 °F 13.4 °F 17.6 °F 74% 30.18 in 10.0 mi SE 12.7 mph - N/A   Clear
11:55 PM 28.4 °F 16.2 °F 19.4 °F 69% 30.18 in 10.0 mi SSE 17.3 mph - N/A   Clear